www.pogodaiklimat.ru

Погода и климат >> Архив погоды >> Россия >> Коми >> Объячево


ПОГОДА в Объячеве

  • Прогноз погоды в Объячеве
  • Монитор погоды в Объячеве

АРХИВ ПОГОДЫ в Объячеве

Время (UTC), дата Ветер
(напр.,м/с)
 
Видим.   Явления Облачность Т
(С)
Тd
(С)
f
(%)
Тe
(С)
Тes
(С)
Комфортность P
(гПа)
Po
(гПа)
Тmin
(С)
Tmax
(С)
R
(мм)
R24
(мм)
S
(см)
15 15.09 ЮЗ 3
{12}
20 км 8/3 600 м
[Sc Ac cast]
+8.0 +2.4 68 +6 +6 1003.3 985.4 +11.4
18 15.09 Ю 2 20 км 4/0
[Ac trans Ci fib]
+5.2 +1.6 78 +3 +3 1002.5 984.4
21 15.09 Ю 2 20 км 6/0
[Ac trans]
+4.8 +1.7 80 +2 +2 1001.3 983.1
00 16.09 Ю 2 20 км 9/0
[Ac trans]
+5.9 +2.8 80 +4 +4 1000.0 981.9
03 16.09 Ю 2 20 км 10/10 1470 м
[Sc]
+4.1 +2.7 91 +1 +1 998.4 980.3 +3.8
06 16.09 Ю 3 20 км 9/5 600 м
[Sc Ac trans]
+7.4 +2.8 73 +5 +5 996.0 978.1
09 16.09 Ю 3
{11}
10 км слаб. ливневой дождь 10/10 750 м
[Cb cap]
+8.6 +3.2 69 +6 +6 993.4 975.7
12 16.09 Ю 3
{10}
4000 м слаб. ливневой дождь 10/10 400 м
[Cb cap]
+7.3 +5.8 90 +4 +4 991.8 974.0
15 16.09 Ю 2 4000 м в посл. час ливневой дождь 10/10 300 м
[Cb cap]
+7.5 +6.1 91 +5 +5 990.5 972.8 +9.5 2
18 16.09 Ю 2 4000 м дымка {ливн. осадки} 10/10 210 м
[Cb cap]
+7.5 +6.2 91 +5 +5 989.7 972.0
21 16.09 Ю 2 4000 м дымка 10/10 300 м
[Cb cap]
+7.7 +6.6 93 +6 +6 988.9 971.2
00 17.09 Ю 1 20 км {ливн. осадки} 9/9 600 м
[Cb cap]
+7.8 +6.5 91 +7 +7 989.0 971.3
03 17.09 Ю 2 20 км 10/10 420 м
[Cb cap]
+7.4 +6.2 92 +5 +5 989.1 971.4 +7.3 0.3
06 17.09 Ю 2 20 км {ливн. осадки} 10/10 540 м
[Cb cap]
+8.6 +6.9 89 +7 +7 989.1 971.5
09 17.09 Ю 3 50 км {ливн. осадки} 9/8 540 м
[Cb cap Ac trans Ci fib]
+11.5 +5.8 68 +10 +11 988.4 971.0
12 17.09 Ю 2 4000 м слаб. ливневой дождь 9/9 500 м
[Cb cap Ac As]
+9.6 +7.7 88 +8 +8 988.8 971.2
15 17.09 Ю 1 20 км {ливн. осадки} 9/8 540 м
[Cb cap Ac As]
+8.7 +7.4 92 +8 +8 988.7 971.1 +12.2 3
18 17.09 Ю 2 20 км в посл. час ливневой дождь 10/10 570 м
[Cb cap]
+7.7 +6.5 92 +6 +6 989.1 971.4
21 17.09 Ю 1 20 км 9/9 240 м
[Cb cap]
+7.6 +6.5 93 +7 +7 989.3 971.6
00 18.09 ЮЗ 1 10 км слаб. ливневой дождь 10/10 210 м
[Cb cap]
+7.5 +6.6 94 +6 +6 990.1 972.4
03 18.09 ЮЗ 1 4000 м слаб. ливневой дождь 9/9 180 м
[Cb cap]
+7.5 +6.6 94 +6 +6 991.3 973.6 +7.4 1
06 18.09 ЮЗ 3 20 км {ливн. осадки} 10/10 240 м
[Cb cap]
+8.6 +6.9 89 +6 +6 992.8 975.1
09 18.09 З 2 20 км в посл. час ливневой дождь 8/5 300 м
[Cb cap Ac cuf]
+9.9 +6.7 80 +8 +10 993.9 976.3
12 18.09 В 1 20 км в посл. час ливневой дождь 9/5 300 м
[Cb cap Ac cuf]
+9.8 +7.0 83 +9 +10 995.1 977.4
15 18.09 ЮВ 1 20 км в посл. час ливневой дождь 9/5 300 м
[Cb cap Ac cuf]
+8.0 +6.6 91 +7 +7 996.0 978.3 +12.8 2
18 18.09 СВ 1 20 км туман поземный {ливн. осадки} 8/0
[Ac trans]
+6.8 +5.7 93 +6 +6 996.3 978.4
21 18.09 штиль 0 500 м туман 10/0
[Ac und]
+4.4 +3.5 94 +3 +3 996.4 978.3
00 19.09 С 1 500 м туман 10/0
[Ac und]
+5.9 +5.1 95 +5 +5 996.1 978.2
03 19.09 С 4 20 км в посл. час ливневой дождь {туман} 10/10 600 м
[Cb cap]
+5.6 +4.7 94 +1 +1 996.2 978.2 +4.3 0.3
06 19.09 С 4 10 км слаб. ливневой дождь 10/10 300 м
[Cb cap]
+5.6 +4.1 90 +2 +2 997.1 979.1
09 19.09 С 4 50 км {ливн. осадки} 9/9 570 м
[Cb cap]
+5.8 +3.7 86 +2 +2 998.9 980.9
12 19.09 С 3 50 км {ливн. осадки} 8/4 600 м
[Cb calv Ac trans Ci fib]
+8.1 +0.6 59 +6 +7 1001.0 983.1
15 19.09 СЗ 2 50 км 4/0
[Ac trans Ci fib]
+5.5 -1.1 62 +3 +3 1003.3 985.2 +8.6 3
18 19.09 С 1 20 км 3/0
[Ac trans]
+1.4 -2.0 78 -0 -0 1005.6 987.2
21 19.09 СЗ 1 20 км ясно +0.3 -1.4 88 -2 -2 1006.9 988.4
00 20.09 ЮЗ 1 20 км туман поземный 4/0
[Ac trans]
-0.6 -1.6 93 -3 -3 1008.5 989.9
03 20.09 ЮЗ 1 2000 м дымка 8/0
[Ac trans Cs]
-1.3 -2.3 93 -4 -4 1009.5 990.8 -1.4
06 20.09 Ю 1 20 км в посл. час туман 10/0
[Ac und]
+0.9 -0.1 93 -1 -0 1010.7 992.1
09 20.09 ЮЗ 2 50 км 10/4 600 м
[Sc diur, vesp Ac As]
+7.0 -2.3 52 +5 +6 1010.5 992.3
12 20.09 ЮЗ 2 50 км 8/4 600 м
[Sc Ac As]
+6.7 -2.1 53 +5 +6 1010.5 992.3
15 20.09 Ю 1 20 км 8/5 600 м
[Sc Ac As]
+4.3 -2.1 63 +3 +3 1010.3 992.0 +7.8
18 20.09 Ю 2 20 км 6/0
[Ac trans]
+3.0 -1.6 72 0 0 1010.4 992.0
21 20.09 штиль 0 20 км 4/0
[Cs]
+2.3 -1.5 76 1004.6 987.4
00 21.09 Ю 2 20 км 4/0
[Cs]
+0.9 -1.7 83 -3 -3 1008.8 990.3
03 21.09 Ю 2 20 км 8/0
[Ac trans Cc]
+0.9 -1.5 84 -3 -3 1007.7 989.2 +0.7
06 21.09 Ю 1 50 км 4/0
[Ac trans Ci fib]
+4.5 -0.5 70 +3 +6 1006.5 988.2
09 21.09 З 3 50 км в посл. час ливневой дождь 8/6 630 м
[Cb cap Cc]
+6.7 -0.8 59 +4 +6 1005.3 987.2
12 21.09 СЗ 3 10 км слаб. ливневой дождь 9/8 500 м
[Cb cap Cc]
+5.9 -3.0 53 +3 +4 1004.8 986.6
15 21.09 З 1 20 км 6/3 600 м
[Cb cap Ac cast Cc]
+3.7 -2.0 66 +3 +3 1004.3 986.0 +8.5 0.0
18 21.09 Ю 1 20 км 8/3 600 м
[Sc Ac trans]
+1.4 -1.4 82 -0 -0 1003.9 985.5
21 21.09 Ю 2 20 км 8/4 600 м
[Sc Ac trans]
+0.4 -1.5 87 -3 -3 1002.6 984.1
00 22.09 Ю 2 20 км туман поземный 3/0
[Ac trans Ci fib]
-1.2 -2.5 91 -5 -5 1001.4 982.9
03 22.09 Ю 2 20 км 6/0
[Ac trans]
-1.1 -2.1 93 -5 -5 1000.3 981.8 -1.7
06 22.09 З 1 50 км 9/1 600 м
[Sc Ac trans Ci fib]
+3.6 +0.1 78 +2 +4 999.0 980.8
09 22.09 З 2 50 км ?/? +5.6 -0.4 65 +3 +4 998.0 979.9

 

Местоположение метеостанции Объячево (Коми, Россия): широта 60.37 долгота 49.65 высота над уровнем моря 152 м.

В архиве по умолчанию представлена погода в Объячеве за последнюю неделю. Архивные данные за месяц целиком и за предыдущие месяцы, начиная с января 2011 года, Вы можете получить, выбрав интересующий диапазон дат из раскрывающегося списка и нажав кнопку "Ввод!".


*Определитесь, кто Вы:
робот инопланетянин человек

Внимание! Время в таблицах - всемирное. Для получения местного времени необходимо прибавить поправку, которая равна 3 ч.

Смотрите также архив погоды в соседних городах и на ближайших метеорологических станциях:

Погода в Койгородке (Коми, Россия) (73 км)
Погода в Пустоши (Коми, Россия) (90 км)
Погода в Опарино (Кировская область, Россия) (95 км)
Погода в Лальске (Кировская область, Россия) (118 км)
Погода в Вилегодском (Архангельская область, Россия) (124 км)
Погода в Нагорске (Кировская область, Россия) (134 км)
Погода в Сыктывкаре (Коми, Россия) (158 км)
Погода в Усть-Черной (Пермский край, Россия) (164 км)
Погода в Слободчиково (Архангельская область, Россия) (171 км)
Погода в Белой Холунице (Кировская область, Россия) (184 км)

Пояснения к столбцам:

Ветер - указаны скорость ветра в м/с - средняя за 10 мин, порывы в срок и между сроками (в фигурных скобках) и направление, откуда дует ветер: С - северный, СВ - северо-восточный, В - восточный, ЮВ - юго-восточный, Ю - южный, ЮЗ - юго-западный, З - западный, СЗ - северо-западный.
Видимость - горизонтальная дальность видимости в метрах или километрах. При видимости от 1 до 10 км при отсутствии осадков обычно наблюдается дымка, при ухудшении видимости до 1 км и менее - туман. В сухую погоду видимость может ухудшаться дымом, пылью или мглою.
Явления - указаны атмосферные явления, наблюдавшиеся в срок или в последний час перед сроком; фигурными скобками обозначены явления, наблюдавшиеся между сроками (за 1-3 часа до срока); квадратными скобками обозначены град или гололедные отложения с указанием их диаметра в мм.
Облачность - указаны через наклонную черту общая и нижняя облачность в баллах и высота нижней границы облаков в метрах; квадратными скобками обозначены формы облаков: Ci - перистые, Cs - перисто-слоистые, Cc - перисто-кучевые, Ac - высококучевые, As - высокослоистые, Sc - слоисто-кучевые, Ns - слоисто-дождевые, Cu - кучевые, Cb - кучево-дождевые. Подробнее классификацию облаков см. в Атласе облаков (PDF).
T - Температура воздуха - температура, измеренная на высоте 2 м над землей.
Td - Температура точки росы - температура, при понижении до которой содержащийся в воздухе водяной пар достигнет насыщения.
f - Относительная влажность воздуха - влажноcть воздуха, измеренная на высоте 2 м над землей.
Te - Эффективная температура - температура, которую ощущает одетый по сезону человек в тени. Характеристика душности погоды. При расчете учитывается влияние влажности воздуха и скорости ветра на теплоощущения человека.
Tes - Эффективная температура на солнце - температура, которую ощущает человек, с поправкой на солнечный нагрев. Характеристика знойности погоды. Зависит от высоты солнца над горизонтом, облачности и скорости ветра. Ночью, в пасмурную погоду, а также при ветре 12 м/с и более поправка равна нулю.
P - Атмосферное давление - приведенное к уровню моря атмосферное давление.
Po - Атмосферное давление - измеренное на уровне метеостанции атмосферное давление.
Tmin - Минимальная температура - минимум температуры воздуха на высоте 2 м над землей.
Tmax - Максимальная температура - максимум температуры воздуха на высоте 2 м над землей.
R - Количество осадков - Количество выпавших осадков за период времени, мм. При наведении курсора мыши на число - период времени, за который выпало указанное количество осадков.
R24 - Количество осадков - Количество выпавших осадков за 24 часа, мм.
S - Снежный покров - Высота снежного покрова, см. При наведении курсора мыши на число - состояние снежного покрова и степень покрытия местности в баллах.